Tracking 20241 objects as of 26-Jan-2020
HD Live streaming from Space Station
objects crossing your sky now

COSMOS 2251 DEB

Track COSMOS 2251 DEB now!
10-day predictions


NORAD ID: 33817
Int'l Code: 1993-036BJ
Perigee: 629.4 km
Apogee: 712.5 km
Inclination: 74.1 °
Period: 98.0 minutes
Semi major axis: 7041 km
RCS: 0.036 m2 (small)
Launch date: June 16, 1993
Source: Commonwealth of Independent States (former USSR) (CIS)
Launch site: PLESETSK MISSILE AND SPACE COMPLEX (PKMTR)

Note: This is SATELLITE DEBRIS
aabbcc
Your satellite tracking list
Your tracking list is empty




NASA's NSSDC Master Catalog

Two Line Element Set (TLE):
1 33817U 93036BJ  20025.48251972 +.00000438 +00000-0 +78257-4 0  9998
2 33817 074.0708 311.1518 0059037 233.5789 125.9931 14.69137397584064
Source of the keplerian elements: AFSPC